T 2006 Oct. 5.4132 TT MPC q 1.554697 (2000.0) P Q z +0.002556 Peri. 19.9890 +0.4602954 +0.5894090 Node 283.3608 -0.8786749 +0.1957284 e 0.996026 Incl. 43.0267 -0.1267224 +0.7837649 From 62 observations 2006 July 30-Sept. 27.
m1 = 13.7 + 5 logΔ + 10.0 log r